Regional Weather Roundup
Issued by NWS Raleigh/Durham, NC

Home | Current Version | Previous Version | Text Only | Print | Product List | Glossary On
Versions: 1 2 3 4 5 6 7 8 9 10 11 12 13 14 15 16 17 18 19 20 21 22 23 24 25 26 27 28 29 30 31 32 33 34 35 36 37 38 39 40 41 42 43 44 45 46 47 48 49 50
000
ASUS42 KRAH 230810
RWRRAH
NORTH CAROLINA WEATHER ROUNDUP
NATIONAL WEATHER SERVICE RALEIGH NC
300 AM EST SUN NOV 23 2014

NOTE: "FAIR" INDICATES FEW OR NO CLOUDS BELOW 12,000 FEET WITH NO
SIGNIFICANT WEATHER AND/OR OBSTRUCTIONS TO VISIBILITY.

NCZ001-053-055-056-065-067-230900-
WESTERN NORTH CAROLINA

CITY           SKY/WX    TMP DP  RH WIND       PRES   REMARKS
ASHEVILLE      CLOUDY    46  22  38 SE3       30.24S
JEFFERSON      MOCLDY    40  21  47 SE3       30.21S
MORGANTON      CLOUDY    41  28  58 CALM      30.31S
HICKORY        CLOUDY    43  29  57 CALM      30.26F
RUTHERFORDTON  CLOUDY    44  32  63 CALM      30.27S
MOUNT AIRY     CLOUDY    35  28  76 CALM      30.28F
BOONE          CLOUDY    42  24  48 CALM      30.22S
$$

NCZ021-022-025-041-071-084-088-230900-
CENTRAL NORTH CAROLINA

CITY           SKY/WX    TMP DP  RH WIND       PRES   REMARKS
CHARLOTTE      CLOUDY    47  24  40 CALM      30.27F
GREENSBORO     CLOUDY    40  24  53 CALM      30.26F
WINSTON-SALEM  CLOUDY    40  25  55 CALM      30.28S
RALEIGH-DURHAM CLOUDY    38  27  64 CALM      30.29F
FORT BRAGG     CLOUDY    40  31  70 CALM      30.28S
FAYETTEVILLE   CLOUDY    41  32  70 NE3       30.28S
BURLINGTON     CLOUDY    37  25  61 CALM      30.28S
LAURINBURG     CLOUDY    44  36  73 NE5       30.27F
$$

NCZ011-015-027-028-043-044-047-080-103-230900-
NORTHEASTERN NORTH CAROLINA

CITY           SKY/WX    TMP DP  RH WIND       PRES   REMARKS
ROCKY MT-WILSO CLOUDY    36  30  79 CALM      30.30F
GREENVILLE     CLOUDY    36  34  93 CALM      30.30F FOG
WASHINGTON     MOCLDY    36  32  88 CALM      30.30F
ELIZABETH CITY MOCLDY    38  34  85 CALM      30.31F
MANTEO         CLOUDY    38  35  87 CALM      30.31S
CAPE HATTERAS  CLOUDY    59  50  72 SW8       30.30F
$$

NCZ078-087-090-091-093-098-101-230900-
SOUTHEASTERN NORTH CAROLINA

CITY           SKY/WX    TMP DP  RH WIND       PRES   REMARKS
LUMBERTON      CLOUDY    46  39  76 CALM      30.28R
GOLDSBORO      CLOUDY    38  36  92 CALM      30.27F
KINSTON        CLOUDY    37  34  91 CALM      30.30S
KENANSVILLE    CLOUDY    39  37  93 CALM      30.29F
NEW BERN       MOCLDY    42  37  82 CALM      30.30F
CHERRY POINT   MOCLDY    44  38  79 CALM      30.30F
BEAUFORT       MOCLDY    45  39  79 SE3       30.29F
JACKSONVILLE   CLOUDY    43  40  89 CALM      30.28F
WILMINGTON     CLOUDY    48  45  89 N3        30.28S
$$




USA.gov is the U.S. government's official web portal to all federal, state and local government web resources and services.